Weather History for Taylorville, IL

Change the Weather History Date:

Friday, August 23, 2013

  Actual Average (KSPI) Record (KSPI)
Temperature  
Mean Temperature 78 °F 74 °F  
Max Temperature 89 °F 85 °F 101 °F (1936)
Min Temperature 66 °F 63 °F 48 °F (1890)
Degree Days  
Heating Degree Days 0 0  
Month to date heating degree days 0  
Since 1 June heating degree days 16  
Since 1 July heating degree days 1  
Cooling Degree Days 12 9  
Month to date cooling degree days 224  
Year to date cooling degree days 903  
Since 1 June cooling degree days 799  
Growing Degree Days 28 (Base 50)    
Moisture  
Dew Point 70 °F    
Average Humidity 79    
Maximum Humidity 100    
Minimum Humidity 52    
Precipitation  
Precipitation 0.16 in 0.10 in 1.44 in (2002)
Month to date precipitation 2.42  
Year to date precipitation 24.83  
Snow  
Snow 0.00 in 0.00 in 0.00 in ()
Month to date snowfall 0.0  
Since 1 June snowfall 0.0  
Since 1 July snowfall 0.0  
Snow Depth -    
Sea Level Pressure  
Sea Level Pressure 30.10 in    
Wind  
Wind Speed 4 mph (ENE)    
Max Wind Speed 8 mph    
Max Gust Speed -    
Visibility 9 miles    
Events Rain , Thunderstorm    
T = Trace of Precipitation, MM = Missing Value Source: NWS Daily Summary

Daily Weather History Graph

Daily Weather History Graph

Search for Another Location

Airport:

Trip Planner

Search our weather history database for the weather conditions in past years. The results will help you decide how hot, cold, wet, or windy it might be!

Date:

Astronomy

Aug. 23, 2013 Rise Set
Actual Time 6:17 AM CDT 7:41 PM CDT
Civil Twilight 5:49 AM CDT 8:09 PM CDT
Nautical Twilight 5:15 AM CDT 8:43 PM CDT
Astronomical Twilight 4:39 AM CDT 9:18 PM CDT
Moon 9:01 PM CDT (8/23) 9:11 AM CDT (8/23)
Length of Visible Light 14h 20m
Length of Day
13h 24m
Waning Gibbous, 91% of the Moon is Illuminated
Aug 23
Waning Gibbous
Aug 28
Last Quarter
Sep 5
New
Sep 12
First Quarter
Sep 19
Full

Hourly Weather History & Observations

Time (CDT) Temp. Heat Index Dew Point Humidity Pressure Visibility Wind Dir Wind Speed Gust Speed Precip Events Conditions
12:15 AM 71.6 °F - 71.6 °F 100% 30.08 in 10.0 mi NE 8.1 mph - N/A   Scattered Clouds
12:35 AM 73.4 °F - 69.8 °F 88% 30.09 in 10.0 mi NE 5.8 mph - N/A Thunderstorm Mostly Cloudy
12:55 AM 73.4 °F - 69.8 °F 88% 30.09 in 10.0 mi NE 5.8 mph - N/A Thunderstorm Scattered Clouds
1:15 AM 71.6 °F - 69.8 °F 94% 30.09 in 10.0 mi NE 8.1 mph - N/A Rain , Thunderstorm Light Thunderstorms and Rain
1:35 AM 71.6 °F - 69.8 °F 94% 30.09 in 10.0 mi ENE 4.6 mph - N/A Rain , Thunderstorm Rain
1:55 AM 71.6 °F - 71.6 °F 100% 30.08 in 5.0 mi ENE 5.8 mph - 0.03 in Rain , Thunderstorm Light Thunderstorms and Rain
2:15 AM 71.6 °F - 71.6 °F 100% 30.09 in 5.0 mi East 3.5 mph - 0.04 in Rain , Thunderstorm Light Thunderstorms and Rain
2:35 AM 71.6 °F - 71.6 °F 100% 30.08 in 10.0 mi ENE 8.1 mph - 0.10 in Rain , Thunderstorm Light Thunderstorms and Rain
2:55 AM 71.6 °F - 69.8 °F 94% 30.08 in 7.0 mi ENE 6.9 mph - 0.03 in Rain , Thunderstorm Light Thunderstorms and Rain
3:15 AM 69.8 °F - 69.8 °F 100% 30.08 in 10.0 mi East 4.6 mph - 0.03 in Thunderstorm Clear
3:35 AM 69.8 °F - 69.8 °F 100% 30.08 in 10.0 mi ESE 5.8 mph - 0.03 in   Clear
3:55 AM 69.8 °F - 69.8 °F 100% 30.08 in 10.0 mi Calm Calm - N/A   Scattered Clouds
4:15 AM 69.8 °F - 69.8 °F 100% 30.09 in 10.0 mi Calm Calm - N/A   Mostly Cloudy
4:35 AM 69.8 °F - 69.8 °F 100% 30.09 in 10.0 mi Calm Calm - N/A   Scattered Clouds
4:55 AM 68.0 °F - 68.0 °F 100% 30.09 in 7.0 mi Calm Calm - N/A   Clear
5:15 AM 68.0 °F - 66.2 °F 94% 30.09 in 2.5 mi Calm Calm - N/A   Clear
5:35 AM 66.2 °F - 66.2 °F 100% 30.09 in 1.5 mi Calm Calm - N/A   Clear
5:55 AM 66.2 °F - 66.2 °F 100% 30.09 in 3.0 mi Calm Calm - N/A   Clear
6:15 AM 66.2 °F - 66.2 °F 100% 30.10 in 2.5 mi North 3.5 mph - N/A   Clear
6:35 AM 66.2 °F - 66.2 °F 100% 30.10 in 2.0 mi Calm Calm - N/A   Clear
6:55 AM 66.2 °F - 66.2 °F 100% 30.11 in 2.0 mi Calm Calm - N/A   Clear
7:15 AM 68.0 °F - 68.0 °F 100% 30.11 in 2.5 mi Calm Calm - N/A   Clear
7:35 AM 69.8 °F - 69.8 °F 100% 30.11 in 3.0 mi Calm Calm - N/A   Clear
7:55 AM 71.6 °F - 71.6 °F 100% 30.11 in 4.0 mi Calm Calm - N/A   Clear
8:15 AM 73.4 °F - 73.4 °F 100% 30.11 in 7.0 mi Calm Calm - N/A   Clear
8:35 AM 75.2 °F - 71.6 °F 89% 30.11 in 10.0 mi NE 3.5 mph - N/A   Clear
8:55 AM 77.0 °F - 71.6 °F 83% 30.12 in 10.0 mi ENE 4.6 mph - N/A   Clear
9:15 AM 78.8 °F - 71.6 °F 78% 30.12 in 10.0 mi East 5.8 mph - N/A   Clear
9:35 AM 78.8 °F - 71.6 °F 78% 30.13 in 10.0 mi East 6.9 mph - N/A   Clear
9:55 AM 80.6 °F 83.9 °F 69.8 °F 70% 30.13 in 10.0 mi ENE 8.1 mph - N/A   Clear
10:15 AM 80.6 °F 84.6 °F 71.6 °F 74% 30.13 in 10.0 mi ENE 4.6 mph - N/A   Clear
10:35 AM 82.4 °F 87.2 °F 71.6 °F 70% 30.13 in 10.0 mi ENE 4.6 mph - N/A   Clear
10:55 AM 82.4 °F 87.2 °F 71.6 °F 70% 30.13 in 10.0 mi ENE 6.9 mph - N/A   Clear
11:15 AM 82.4 °F 87.2 °F 71.6 °F 70% 30.13 in 10.0 mi ENE 4.6 mph - N/A   Clear
11:35 AM 84.2 °F 89.6 °F 71.6 °F 66% 30.13 in 10.0 mi ENE 6.9 mph - N/A   Clear
11:55 AM 84.2 °F 89.6 °F 71.6 °F 66% 30.13 in 10.0 mi ENE 5.8 mph - N/A   Clear
12:15 PM 84.2 °F 88.4 °F 69.8 °F 62% 30.12 in 10.0 mi ENE 4.6 mph - N/A   Clear
12:35 PM 86.0 °F 90.4 °F 69.8 °F 58% 30.12 in 10.0 mi East 4.6 mph - N/A   Clear
12:55 PM 86.0 °F 89.4 °F 68.0 °F 55% 30.11 in 10.0 mi ENE 6.9 mph - N/A   Clear
1:15 PM 87.8 °F 92.6 °F 69.8 °F 55% 30.11 in 10.0 mi ENE 8.1 mph - N/A   Clear
1:35 PM 87.8 °F 92.6 °F 69.8 °F 55% 30.11 in 10.0 mi ENE 4.6 mph - N/A   Clear
1:55 PM 87.8 °F 92.6 °F 69.8 °F 55% 30.11 in 10.0 mi SE 4.6 mph - N/A   Clear
2:15 PM 89.6 °F 94.7 °F 69.8 °F 52% 30.11 in 10.0 mi Calm Calm - N/A   Scattered Clouds
2:35 PM 87.8 °F 93.8 °F 71.6 °F 58% 30.10 in 10.0 mi North 4.6 mph - N/A   Scattered Clouds
2:55 PM 86.0 °F 90.4 °F 69.8 °F 58% 30.10 in 10.0 mi Calm Calm - N/A   Scattered Clouds
3:15 PM 87.8 °F 92.6 °F 69.8 °F 55% 30.09 in 10.0 mi East 5.8 mph - N/A   Scattered Clouds
3:35 PM 86.0 °F 90.4 °F 69.8 °F 58% 30.09 in 10.0 mi East 3.5 mph - N/A   Scattered Clouds
3:55 PM 87.8 °F 92.6 °F 69.8 °F 55% 30.08 in 10.0 mi NE 5.8 mph - N/A   Scattered Clouds
4:15 PM 89.6 °F 94.7 °F 69.8 °F 52% 30.08 in 10.0 mi ENE 3.5 mph - N/A   Clear
4:35 PM 86.0 °F 90.4 °F 69.8 °F 58% 30.08 in 10.0 mi East 4.6 mph - N/A   Clear
4:55 PM 86.0 °F 89.4 °F 68.0 °F 55% 30.08 in 10.0 mi NNE 5.8 mph - N/A   Clear
5:15 PM 87.8 °F 91.4 °F 68.0 °F 52% 30.08 in 10.0 mi NE 5.8 mph - N/A   Clear
5:35 PM 86.0 °F 89.4 °F 68.0 °F 55% 30.08 in 10.0 mi NE 5.8 mph - N/A   Clear
5:55 PM 86.0 °F 89.4 °F 68.0 °F 55% 30.08 in 10.0 mi East 6.9 mph - N/A   Clear
6:15 PM 84.2 °F 87.3 °F 68.0 °F 58% 30.08 in 10.0 mi East 6.9 mph - N/A   Clear
6:35 PM 84.2 °F 87.3 °F 68.0 °F 58% 30.08 in 10.0 mi East 6.9 mph - N/A   Clear
6:55 PM 82.4 °F 85.4 °F 68.0 °F 62% 30.08 in 10.0 mi East 3.5 mph - N/A   Clear
7:15 PM 80.6 °F 83.9 °F 69.8 °F 70% 30.08 in 10.0 mi East 3.5 mph - N/A   Clear
7:35 PM 78.8 °F - 69.8 °F 74% 30.09 in 10.0 mi Calm Calm - N/A   Clear
7:55 PM 77.0 °F - 69.8 °F 78% 30.09 in 10.0 mi Calm Calm - N/A   Clear
8:15 PM 73.4 °F - 69.8 °F 88% 30.10 in 10.0 mi Calm Calm - N/A   Clear
8:35 PM 73.4 °F - 69.8 °F 88% 30.11 in 10.0 mi Calm Calm - N/A   Clear
8:55 PM 73.4 °F - 69.8 °F 88% 30.11 in 10.0 mi East 3.5 mph - N/A   Clear
9:15 PM 73.4 °F - 69.8 °F 88% 30.12 in 10.0 mi East 4.6 mph - N/A   Clear
9:35 PM 73.4 °F - 69.8 °F 88% 30.12 in 10.0 mi East 3.5 mph - N/A   Clear
9:55 PM 73.4 °F - 69.8 °F 88% 30.13 in 10.0 mi East 4.6 mph - N/A   Clear
10:15 PM 73.4 °F - 69.8 °F 88% 30.13 in 10.0 mi Calm Calm - N/A   Clear
10:35 PM 71.6 °F - 68.0 °F 88% 30.13 in 10.0 mi East 4.6 mph - N/A   Clear
10:55 PM 71.6 °F - 68.0 °F 88% 30.13 in 10.0 mi East 4.6 mph - N/A   Clear
11:15 PM 73.4 °F - 68.0 °F 83% 30.13 in 10.0 mi East 4.6 mph - N/A   Clear
11:35 PM 71.6 °F - 68.0 °F 88% 30.13 in 10.0 mi East 4.6 mph - N/A   Clear
11:55 PM 71.6 °F - 68.0 °F 88% 30.13 in 10.0 mi East 5.8 mph - N/A   Clear